ED1ZAI-13 Weather Reports


time (UTC)temp
C
wind
direction
speed
KPH
gust
KPH
rain 1hr
cm
rain 24hr
cm
rain mn
cm
humidity
%
barometer
mb
20260507065935 8 31 0.0 0.0 0.00 0.00 0.00 74 1010.9
20260507064934 7 34 0.0 0.0 0.00 0.00 0.00 75 1010.9
20260507063934 7 31 0.0 0.0 0.00 0.00 0.00 74 1010.7
20260507062934 7 34 0.0 0.0 0.00 0.00 0.00 76 1010.8
20260507061933 6 34 1.6 3.2 0.00 0.00 0.00 77 1010.9
20260507060935 6 32 1.6 3.2 0.00 0.00 0.00 75 1010.8
20260507055935 6 30 1.6 3.2 0.00 0.00 0.00 76 1010.8
20260507054935 6 32 1.6 3.2 0.00 0.00 0.00 76 1010.7
20260507053934 6 30 1.6 3.2 0.00 0.00 0.00 76 1010.6
20260507053125 6 30 1.6 3.2 0.00 0.00 0.00 76 1010.6
20260507052125 5 32 1.6 3.2 0.00 0.00 0.00 77 1010.6
20260507051124 5 30 1.6 3.2 0.00 0.00 0.00 77 1010.6
20260507050124 5 30 3.2 4.8 0.00 0.00 0.00 76 1010.6
20260507045124 6 32 1.6 3.2 0.00 0.00 0.00 76 1010.6
20260507044124 6 32 1.6 3.2 0.00 0.00 0.00 77 1010.7
20260507043124 5 32 1.6 3.2 0.00 0.00 0.00 78 1010.7
20260507042124 5 32 1.6 3.2 0.00 0.00 0.00 78 1010.7
20260507041123 5 32 0.0 0.0 0.00 0.00 0.00 77 1010.7
20260507040125 5 30 0.0 1.6 0.00 0.00 0.00 78 1010.8
20260507035125 5 30 1.6 3.2 0.00 0.00 0.00 79 1010.8
20260507034125 5 30 1.6 3.2 0.00 0.00 0.00 79 1010.9
20260507033123 5 32 0.0 1.6 0.00 0.00 0.00 80 1010.8
20260507032125 5 30 3.2 4.8 0.00 0.00 0.00 80 1010.8
20260507031125 5 28 3.2 6.4 0.00 0.00 0.00 80 1010.9
20260507030124 5 27 3.2 4.8 0.00 0.00 0.00 79 1010.9
20260507025124 6 26 1.6 3.2 0.00 0.00 0.00 79 1010.9
20260507024124 6 26 1.6 3.2 0.00 0.00 0.00 78 1010.9
20260507023125 6 24 1.6 3.2 0.00 0.00 0.00 78 1010.9
20260507022125 6 26 1.6 3.2 0.00 0.00 0.00 77 1011.0
20260507021125 6 24 0.0 0.0 0.00 0.00 0.00 76 1011.0
20260507020124 7 26 0.0 0.0 0.00 0.00 0.00 77 1011.1
20260507015124 7 24 0.0 0.0 0.00 0.00 0.00 76 1011.1
20260507014124 7 26 0.0 0.0 0.00 0.00 0.00 74 1010.9
20260507013123 7 24 0.0 0.0 0.00 0.00 0.00 75 1011.0
20260507012125 7 26 0.0 0.0 0.00 0.00 0.00 75 1011.1
20260507011125 7 26 0.0 0.0 0.00 0.00 0.00 77 1011.2
20260507010124 7 26 0.0 0.0 0.00 0.00 0.00 78 1011.3
20260507005124 7 26 0.0 0.0 0.00 0.00 0.00 77 1011.4
20260507004124 7 26 1.6 3.2 0.00 0.00 0.00 77 1011.4
20260507003125 7 24 1.6 3.2 0.00 0.00 0.00 76 1011.4
20260507002124 7 26 1.6 3.2 0.00 0.00 0.00 77 1011.5
20260507001124 7 76 0.0 0.0 0.00 0.00 0.00 75 1011.5
20260507000125 7 24 0.0 1.6 0.00 0.00 0.00 77 1011.6
20260506235124 7 35 0.0 0.0 0.00 0.00 0.00 76 1011.7
20260506234124 7 33 0.0 0.0 0.00 0.00 0.00 77 1011.7
20260506233124 7 35 0.0 0.0 0.00 0.00 0.00 77 1011.6
20260506232123 7 35 0.0 0.0 0.00 0.00 0.00 75 1011.6
20260506231125 7 35 0.0 0.0 0.00 0.00 0.00 77 1011.6
20260506230125 8 33 0.0 0.0 0.00 0.00 0.00 76 1011.6
20260506225125 7 34 0.0 0.0 0.00 0.00 0.00 78 1011.5
20260506224124 7 35 0.0 1.6 0.00 0.00 0.00 79 1011.6
20260506223124 7 35 3.2 4.8 0.00 0.00 0.00 78 1011.5
20260506222124 7 33 1.6 4.8 0.00 0.00 0.00 79 1011.5
20260506221125 7 35 3.2 4.8 0.00 0.00 0.00 79 1011.5
20260506220125 7 31 1.6 4.8 0.00 0.00 0.00 78 1011.6
20260506210124 9 27 0.0 0.0 0.00 0.00 0.00 72 1011.2
20260506205123 9 27 0.0 0.0 0.00 0.00 0.00 72 1011.2
20260506204125 8 33 1.6 3.2 0.00 0.00 0.00 71 1011.2
20260506203125 8 30 1.6 3.2 0.00 0.00 0.00 71 1011.1
20260506202124 9 36 1.6 4.8 0.00 0.00 0.00 70 1011.0
20260506201124 9 31 0.0 3.2 0.00 0.00 0.00 69 1010.9
20260506200124 10 31 1.6 4.8 0.00 0.00 0.00 68 1010.8
20260506195125 10 37 1.6 4.8 0.00 0.00 0.00 67 1010.5
20260506194124 10 41 0.0 0.0 0.00 0.00 0.00 65 1010.5
20260506193124 10 41 0.0 3.2 0.00 0.00 0.00 66 1010.5
20260506192123 10 36 1.6 4.8 0.00 0.00 0.00 66 1010.4
20260506191125 10 28 3.2 6.4 0.00 0.00 0.00 64 1010.2
20260506190125 11 30 3.2 4.8 0.00 0.00 0.00 61 1010.2
20260506185125 11 30 3.2 6.4 0.00 0.00 0.00 59 1010.0
20260506184124 12 37 4.8 6.4 0.00 0.00 0.00 58 1009.9
20260506183124 12 36 4.8 6.4 0.00 0.00 0.00 56 1009.7
20260506182124 13 57 3.2 8.0 0.00 0.00 0.00 54 1009.6
20260506181124 12 34 4.8 8.0 0.00 0.00 0.00 57 1009.6
20260506180123 13 31 1.6 4.8 0.00 0.00 0.00 51 1009.5
20260506175125 12 32 3.2 6.4 0.00 0.00 0.00 54 1009.5
20260506174125 14 27 1.6 4.8 0.00 0.00 0.00 48 1009.3
20260506173125 15 248 1.6 8.0 0.00 0.00 0.00 44 1009.4
20260506172124 16 10 1.6 4.8 0.00 0.00 0.00 43 1009.4
20260506171124 18 41 0.0 6.4 0.00 0.00 0.00 39 1009.4
20260506170124 15 131 3.2 8.0 0.00 0.00 0.00 44 1009.6
20260506165125 15 14 0.0 1.6 0.00 0.00 0.00 46 1009.6
20260506164125 14 84 0.0 1.6 0.00 0.00 0.00 47 1009.7
20260506163125 15 57 0.0 1.6 0.00 0.00 0.00 45 1009.5
20260506162124 15 60 0.0 1.6 0.00 0.00 0.00 44 1009.5
20260506161124 15 238 0.0 3.2 0.00 0.00 0.00 45 1009.5
20260506160124 17 9 0.0 1.6 0.00 0.00 0.00 40 1009.6
20260506155124 17 239 1.6 8.0 0.00 0.00 0.00 38 1009.5
20260506154125 16 213 0.0 1.6 0.00 0.00 0.00 34 1009.5
20260506153125 16 213 0.0 3.2 0.00 0.00 0.00 33 1009.5
20260506152125 18 141 0.0 1.6 0.00 0.00 0.00 34 1009.6
20260506151125 16 157 0.0 3.2 0.00 0.00 0.00 35 1009.6
20260506150124 16 84 0.0 3.2 0.00 0.00 0.00 34 1009.8
20260506145124 16 217 0.0 1.6 0.00 0.00 0.00 36 1009.7
20260506144124 15 217 1.6 4.8 0.00 0.00 0.00 36 1009.8
20260506143125 15 91 1.6 6.4 0.00 0.00 0.00 36 1009.8
20260506142125 18 90 1.6 8.0 0.00 0.00 0.00 30 1009.9
20260506141125 15 216 1.6 6.4 0.00 0.00 0.00 34 1010.2
20260506140124 17 224 0.0 3.2 0.00 0.00 0.00 29 1010.2
20260506135124 15 237 1.6 6.4 0.00 0.00 0.00 33 1010.3
20260506134124 16 232 3.2 8.0 0.00 0.00 0.00 34 1010.3
20260506133124 19 281 1.6 4.8 0.00 0.00 0.00 28 1010.3
20260506132125 21 359 0.0 3.2 0.00 0.00 0.00 25 1010.4
20260506131125 18 228 0.0 4.8 0.00 0.00 0.00 30 1010.5
20260506130125 18 246 0.0 0.0 0.00 0.00 0.00 31 1010.5
20260506125124 16 288 3.2 6.4 0.00 0.00 0.00 30 1010.6
20260506124124 19 72 1.6 8.0 0.00 0.00 0.00 28 1010.6
20260506123124 15 230 0.0 1.6 0.00 0.00 0.00 36 1010.8
20260506122124 15 227 0.0 4.8 0.00 0.00 0.00 36 1010.8
20260506121125 14 84 3.2 9.7 0.00 0.00 0.00 35 1010.9
20260506120125 17 98 0.0 6.4 0.00 0.00 0.00 33 1010.8
20260506115125 14 138 1.6 9.7 0.00 0.00 0.00 38 1011.1
20260506114124 14 214 1.6 6.4 0.00 0.00 0.00 38 1011.1
20260506113124 12 207 4.8 12.9 0.00 0.00 0.00 43 1011.2
20260506112124 14 268 3.2 9.7 0.00 0.00 0.00 39 1011.3
20260506111124 13 154 1.6 6.4 0.00 0.00 0.00 40 1011.2
20260506110125 12 100 1.6 8.0 0.00 0.00 0.00 44 1011.3
20260506105125 12 220 3.2 6.4 0.00 0.00 0.00 42 1011.4
20260506104125 14 230 1.6 8.0 0.00 0.00 0.00 39 1011.4
20260506103125 12 255 1.6 6.4 0.00 0.00 0.00 44 1011.5
20260506102124 15 128 0.0 3.2 0.00 0.00 0.00 39 1011.5
20260506101124 13 218 0.0 0.0 0.00 0.00 0.00 43 1011.6
20260506100126 12 210 1.6 4.8 0.00 0.00 0.00 48 1011.7
20260506095125 13 279 0.0 6.4 0.00 0.00 0.00 42 1011.6
20260506094125 13 131 1.6 4.8 0.00 0.00 0.00 43 1011.5
20260506093125 12 154 1.6 4.8 0.00 0.00 0.00 44 1011.6
20260506092125 12 168 1.6 4.8 0.00 0.00 0.00 42 1011.4
20260506091124 15 306 0.0 3.2 0.00 0.00 0.00 41 1011.4
20260506090124 13 261 0.0 4.8 0.00 0.00 0.00 43 1011.5
20260506085124 14 359 0.0 1.6 0.00 0.00 0.00 42 1011.4
20260506084123 14 359 0.0 1.6 0.00 0.00 0.00 38 1011.3
20260506082901 13 237 0.0 3.2 0.00 0.00 0.00 41 1011.4
20260506081901 12 280 0.0 1.6 0.00 0.00 0.00 49 1011.4
20260506080900 12 288 0.0 1.6 0.00 0.00 0.00 47 1011.4
20260506072901 9 292 0.0 0.0 0.00 0.00 0.00 66 1011.6
20260506071901 7 290 0.0 0.0 0.00 0.00 0.00 71 1011.7
20260506070901 6 290 0.0 0.0 0.00 0.00 0.00 73 1011.7